Погода в Пензе

Погода в Пензе : погода сейчас, прогноз погоды и архив. Всё, что Вы хотите узнать о погоде в Пензе!

Хотите узнать прогноз погоды в Пензе? Тогда Вам сюда: Погода в Пензе

Поиск расширенной информации на нашем сайте:

Другие новости

Новости СМИ2

Главная страница сайта

Новости сайта

03.07.2017

Напоминаем, что на нашем специализированном сайте Метеоцентр.Азия вы можете получить высокодетализированные автоматические прогнозы погоды по пунктам России, СНГ и мира в авиационном формате (включающие направление и скорость ветра, видимость, явления погоды, количество и форму облачности, нижнюю и верхнюю границу облачности).

Рекомендуем: Нижегородская типография ОЛИВЕР: печать листовок.

Погода в Пензе - сегодня

Время (UTC), дата Ветер
(°,м/с) 
Видим.   Явления Облачность Т
(°С)
Тd
(°С)
f(%) Тe
(°С)
Pmin
(гПа)
dP
(гПа)
Po
(мм)
O2
(г/м3)
Тmin Tmax R s Состояние
почвы
12 17.01.18 160 (Ю) 10 км  {ливн. осадки, снег}  3/3 300 м 
[Sc]
-11.4 -12 95 -13  1024.4  -1.3  751  317           
15 17.01.18 160 (Ю) 4000 м  слаб. снег  10/10 210 м 
[St]
-11.1 -11.5 97 -13  1023.4  -0.9  751  316    -10.8  0.3     
18 17.01.18 160 (Ю) 4000 м  слаб. снег  10/10 270 м 
[St]
-12 -12.7 95 -15  1023.5  751  317           
21 17.01.18 150 (ЮВ) 10 км  {снег}  ясно 
-13.7 -14.6 93 -17  1023.5  0.1  750  320           
00 18.01.18 160 (Ю) 10 км  позёмок{снег}  ясно 
-14.4 -15.5 91 -19  1023  -0.6  750  320           
03 18.01.18 160 (Ю) 10 км  позёмок  ясно 
-16.1 -17.5 89 -21  1022.5  -0.6  750  322  -16.1    0.0  равномерный
сухой снег
100% 
06 18.01.18 160 (Ю) 10 км    4/0 верхняя 
[Ci fib]
-16.4 -18.1 87 -22  1023.5  0.9  750  323  -16.7         
09 18.01.18 150 (ЮВ) 4{10}  10 км  позёмок  3/0 верхняя 
[Ci fib]
-13.9 -16.3 82 -18  1023.4  0.1  750  320           
12 18.01.18 160 (Ю) 10 км    3/0 верхняя 
[Ci fib]
-11.8 -16.1 70 -16  1023.1  -0.1  750  317           
15 18.01.18 150 (ЮВ) 10 км    ясно 
-13.4 -16 81 -17  1023.7  0.5  751  319    -11.7       
18 18.01.18 130 (ЮВ) 10 км    ясно 
-16.1 -18.4 82 -18  1024.9  0.9  751  323           
21 18.01.18 150 (ЮВ) 10 км    ясно 
-17.3 -20 79 -21  1025.5  0.4  752  325           
00 19.01.18 140 (ЮВ) 10 км    ясно 
-17.8 -20.7 78 -20  1025.1  -0.4  751  325           
03 19.01.18 140 (ЮВ) 10 км    ясно 
-18.6 -21.2 80 -21  1025.5  0.3  752  327  -18.6      равномерный
сухой снег
100% 
06 19.01.18 120 (ЮВ) 10 км    1/0 верхняя 
[Cs]
-19.1 -21.1 84 -22  1026.6  752  328  -19.2         
09 19.01.18 160 (Ю) 10 км    ясно 
-14.4 -19.9 63 -18  1026.5  0.3  753  322           
12 19.01.18 130 (ЮВ) 10 км    ясно 
-11.2 -17.6 59 -13  1025.4  -0.8  752  317           
15 19.01.18 140 (ЮВ) 10 км    ясно 
-12.9 -16.8 73 -16  1026.2  0.6  752  320    -11.1       
18 19.01.18 140 (ЮВ) 10 км    ясно 
-14.8 -16.9 84 -18  1025.6  -0.7  752  322           
21 19.01.18 120 (ЮВ) 4000 м  слаб. снег  10/10 300 м 
[St]
-14.1 -15.5 89 -18  1025.2  -0.4  752  321           
00 20.01.18 130 (ЮВ) 10 км  {снег}  10/10 360 м 
[St]
-11.6 -12.9 90 -15  1023.9  -1  751  317           
03 20.01.18 130 (ЮВ) 4000 м  слаб. снег  10/10 210 м 
[Frnb]
-10.4 -11.8 89 -13  1022.2  -1.5  750  315  -15.1    0.0  равномерный
сухой снег
100% 
06 20.01.18 130 (ЮВ) 4{10}  4000 м  слаб. снег  10/10 700 м 
[Sc]
-9.7 -11.2 89 -14  1020.8  -1.3  749  314           
09 20.01.18 170 (Ю) 5{12}  4000 м  снег  10/10 200 м 
[Frnb|Ns]
-9.3 -10.8 89 -14  1021.2  0.4  749  313           
12 20.01.18 180 (Ю) 4000 м  слаб. снег  10/10 270 м 
[Frnb|Ns]
-9.3 -11.3 85 -13  1021.2  749  314           
Время (UTC), дата Ветер
(°,м/с) 
Видим.   Явления Облачность Т
(°С)
Тd
(°С)
f(%) Тe
(°С)
Pmin
(гПа)
dP
(гПа)
Po
(мм)
O2
(г/м3)
Тmin Tmax R s Состояние
почвы

Для получения пояснительной информации подведите курсор к названию столбца.

ПОГОДА в Пензе - архив

Всё, что Вы хотите узнать о погоде в Пензе - удобно и подробно!

Выберите нужную дату (начиная с 1 января 2015* года) и нажмите кнопку "Найти".
Будут отображены архивные сводки погоды по пункту Пенза, начиная с указанной даты.


Отображать данные в формате CSV (для использования в таблицах Excel)


Внимание! Наш архив погоды предназначен исключительно для личного некоммерческого использования в познавательных целях. Если Вам необходимы официальные справки о состоянии погоды (для производственных, юридических, коммерческих и т.п. целей), обращайтесь в органы Росгидромета.

*Примечание: данная дата относится к архиву по метеостанциям СССР (Россия, СНГ, Балтия).
Архив по метеостанциям Зарубежной Европы и Азии (кроме Китая) хранится 10 дней, по другим регионам земного шара (Китай, Африка, Америка, Австралия, Океания) - 1 день.

Пенза - район местоположения метеостанции


Название, широта, долгота, высота метеостанции:
Пенза (Терновка) 53.1°ш. 45°д. 177 м над ур. моря [Российская Федерация]

Дополнительная информация

В oтличие oт бoльшинства пoгoдных сайтoв мы публикуем пoдрoбную метеoинфoрмацию в детальнoм прoфессиoнальнoм фoрмате.

Характеристики температуры и влажнoсти вoздуха измеряются на высoте 2 м в тени вдали oт зданий и деревьев.
Скoрoсть ветра измеряется на высoте 10 м (на урoвне рoста челoвека скoрoсть ветра ниже в 1.5-2 раза). Если метеoстанция нахoдится в гoрoде или в лесу, тo скoрoсть ветра занижена на 2-4 м/с пo сравнению с oткрытым местoм. Скoрoсть ветра над акватoриями крупных рек и oзёр, а также на вершинах хoлмoв на 2-5 м/с выше, чем в oбычных услoвиях.
Атмoсфернoе давление в разных тoчках местнoсти мoжет значительнo oтличаться oт давления на метеoстанции, в зависимoсти oт услoвий рельефа (при пoдъёме на 10 м давление пoнижается примернo на 1 мм рт.ст.).